User: anonymous   Login
Location: Unspecified
(0.0000°N, 0.0000°E)
Time: 16:39:58
(UTC+02:00)
Language:

Landsat 4 - Orbit

View from above orbital plane
View from above orbital plane
View from above satellite
View from above satellite

Ground track
Ground track

The orbit data is extracted from the following two-line orbital elements,

1 13367U 82072A   16180.45052992  .00000645  00000-0  38531-4 0  9990
2 13367  98.2041 308.0751 0012703 328.7171  59.9152 15.15102755831456
Epoch (UTC): 28 June 2016 10:48:45
Eccentricity: 0.0012703
inclination: 98.2041°
perigee height: 512 km
apogee height: 529 km
right ascension of ascending node: 308.0751°
argument of perigee: 328.7171°
revolutions per day: 15.15102755
mean anomaly at epoch: 59.9152°
orbit number at epoch: 83145

The dashed part of the orbit path shows where the satellite is in the earth's shadow,  

DLR